Location: Steilacoom
(47.1700°N, 122.5700°W)
Time: 19:29:48
(UTC-07:00)

Tiangong 2 - Visible Passes

Search period start: 17 August 2018 00:00
Search period end: 27 August 2018 00:00
Orbit: 384 x 395 km, 42.8° (Epoch: 17 August)

Date Brightness Start Highest point End Pass type
(mag) Time Alt. Az. Time Alt. Az. Time Alt. Az.
18 Aug 3.2 05:06:46 11° SSW 05:08:47 17° SSE 05:11:00 10° ESE visible
19 Aug 3.7 04:11:34 12° SE 04:11:34 12° SE 04:12:29 10° SE visible
20 Aug 2.6 04:48:40 20° SSW 04:49:41 24° SSE 04:52:21 10° ESE visible
21 Aug 3.6 03:53:25 14° SE 03:53:25 14° SE 03:54:16 10° ESE visible
21 Aug 2.0 05:25:44 12° WSW 05:28:22 35° S 05:31:21 10° ESE visible
22 Aug 2.1 04:30:31 31° S 04:30:36 31° S 04:33:29 10° ESE visible
23 Aug 4.0 03:35:18 11° ESE 03:35:18 11° ESE 03:35:33 10° ESE visible
23 Aug 1.8 05:07:38 20° WSW 05:09:19 37° S 05:12:20 10° ESE visible
24 Aug 2.5 04:12:28 28° SE 04:12:28 28° SE 04:14:30 10° ESE visible
24 Aug 2.2 05:45:12 10° WSW 05:48:02 29° SSW 05:50:52 10° SE visible
25 Aug 1.9 04:49:43 31° SSW 04:50:15 34° S 04:53:11 10° ESE visible
26 Aug 3.6 03:54:45 15° ESE 03:54:45 15° ESE 03:55:26 10° ESE visible
26 Aug 2.6 05:27:05 14° WSW 05:28:53 22° SSW 05:31:26 10° SE visible
